Temperature
16 16 16 16 13 11 12 13 13 13 13 13 14 14 13 13 13 14 14 14 14 14 14 13 13 13 13 13 13 13 13 13 14 14 14 14 14 14 14 14 14 14 14 14 14 14 14 14 14
16 16 16 15 12 12 12 12 13 13 13 13 13 13 13 12 13 13 13 13 13 13 13 13 13 13 13 13 13 13 13 13 13 14 14 14 14 14 14 14 14 14 14 14 14 14 14 14 14
15 15 16 11 11 12 13 13 12 12 13 13 12 12 12 12 12 13 13 13 13 13 13 13 13 13 13 13 13 13 13 13 13 13 13 13 13 13 13 13 13 13 13 13 13 13 14 13 14
15 15 14 10 12 11 12 13 11 11 12 12 12 11 11 12 12 12 13 13 13 13 13 13 13 13 13 13 13 13 13 13 13 13 13 13 13 13 13 13 13 13 13 13 13 13 13 13 13
14 14 11 10 11 11 11 11 12 11 11 11 11 10 10 11 12 12 12 12 12 12 12 12 12 12 12 12 12 13 13 13 13 13 13 13 13 13 13 13 13 13 13 13 13 13 13 13 13
14 11 10 10 11 11 11 12 12 10 10 10 11 10 10 11 11 12 12 12 12 12 12 12 12 12 12 12 12 12 12 12 13 13 13 13 13 13 13 13 13 13 13 13 13 13 13 13 13
12 9 10 10 10 11 11 11 11 10 9 10 11 10 10 11 11 11 11 11 11 11 12 12 12 12 12 12 12 12 12 12 12 12 12 12 13 13 13 12 12 12 13 13 13 13 12 12 12
12 8 9 9 10 11 11 11 11 10 10 11 11 10 10 11 11 10 10 10 11 11 11 11 11 11 11 12 12 12 12 12 12 12 12 12 12 12 12 12 12 12 12 12 12 12 12 12 12
12 8 8 9 9 10 10 10 10 10 10 10 10 10 10 11 10 10 10 10 10 10 11 11 11 11 11 11 11 11 11 11 11 12 12 12 12 12 12 12 12 12 12 12 12 12 12 12 12
10 8 9 9 9 10 10 10 9 9 8 8 9 9 10 10 10 10 10 10 10 10 10 10 10 11 11 11 11 11 11 11 11 11 11 11 11 11 11 11 11 11 11 11 11 11 11 11 11
8 8 9 9 10 10 9 9 9 9 8 8 9 10 10 9 10 10 10 10 10 10 10 10 10 10 10 11 11 11 10 10 11 11 11 11 11 11 11 11 11 11 11 11 11 11 11 11 11
7 7 8 9 9 9 9 8 8 7 8 9 10 10 10 9 9 10 10 10 10 10 10 10 10 10 10 10 10 10 10 10 10 10 10 10 11 11 11 11 11 11 11 10 10 11 10 10 10
7 7 7 8 8 8 8 7 7 7 8 9 9 9 9 9 9 9 9 9 9 9 9 9 9 9 9 9 10 10 10 10 10 10 10 10 10 10 10 10 10 10 10 10 10 10 10 10 10
7 7 7 7 7 7 6 6 6 6 7 8 8 8 8 8 8 8 8 8 9 9 9 9 9 9 9 9 9 9 9 9 9 9 9 9 9 10 10 10 10 9 9 9 9 9 9 10 10
7 6 6 6 6 6 6 5 4 6 7 7 7 8 8 8 8 8 8 8 8 8 8 8 8 8 8 8 8 8 8 8 8 8 9 9 9 9 9 9 9 9 9 9 9 9 9 9 9
6 6 6 6 5 6 6 6 5 6 6 5 6 6 7 7 7 7 7 7 8 8 8 8 8 8 8 8 8 8 8 8 8 8 8 8 8 8 9 9 9 9 8 8 8 8 9 9 9
5 5 5 5 5 4 5 4 5 5 5 4 4 5 5 6 6 6 7 7 7 7 7 7 7 7 7 7 7 7 7 7 7 7 7 7 8 8 8 8 8 8 8 8 8 8 8 8 8
4 4 4 5 4 4 3 3 4 4 4 3 3 3 4 5 6 6 6 6 6 6 7 7 7 7 7 6 6 6 6 6 6 7 7 7 7 7 7 7 8 8 8 8 8 8 8 8 8
4 4 4 4 4 3 3 3 3 3 2 2 2 2 3 4 5 5 5 5 6 6 6 6 6 6 6 6 6 6 6 6 6 6 6 6 6 6 7 7 7 7 7 7 7 7 7 7 7
4 4 3 3 4 3 2 2 2 2 2 2 2 2 2 3 4 4 4 5 5 5 5 5 5 5 5 5 5 6 6 5 5 5 5 6 5 6 6 6 6 6 6 6 7 7 7 7 6
3 3 3 3 3 3 2 2 2 2 2 2 2 2 2 2 3 3 4 4 4 4 5 5 5 5 5 5 5 5 5 4 4 5 5 5 5 5 5 5 5 5 6 6 6 6 6 6 6
3 3 3 3 2 1 2 2 2 1 1 1 1 1 1 1 2 2 3 3 4 4 4 4 4 4 4 4 4 4 4 4 4 4 4 4 4 4 4 5 5 5 5 5 5 5 5 6 6
2 2 2 2 1 1 1 1 1 0 1 1 0 0 1 1 2 2 3 3 3 3 4 4 4 4 4 4 4 4 4 4 4 4 4 4 4 4 4 4 4 4 4 4 4 4 4 5 5
1 1 1 0 0 1 1 1 1 -0 0 0 0 0 0 1 1 2 2 2 3 3 3 3 3 3 3 3 4 4 4 4 3 4 4 4 4 4 4 4 4 4 4 4 4 4 4 4 4
1 1 1 1 0 1 -0 0 0 -0 -1 -1 -1 -0 0 0 1 1 1 1 2 2 2 2 2 3 3 3 3 3 3 3 3 3 3 3 3 3 3 3 3 3 3 3 3 3 3 3 3
-0 1 1 1 0 0 -1 -1 -0 -1 -1 -1 -1 -0 -0 -0 0 0 1 1 1 2 2 2 2 2 2 2 2 2 2 3 3 3 3 3 3 3 3 3 3 3 3 3 3 3 3 3 3
-0 -1 -0 -1 -2 -1 -1 -2 -2 -2 -2 -2 -2 -2 -2 -1 -1 -0 0 1 1 1 1 1 1 2 2 2 2 2 2 2 2 2 2 2 2 2 2 2 2 2 2 2 2 2 2 2 2
-1 -2 -2 -1 -0 -0 -1 -2 -1 -1 -2 -3 -3 -3 -2 -2 -1 -1 -1 -0 0 0 1 1 1 1 1 1 1 1 1 1 1 1 2 1 1 2 2 2 2 2 2 2 2 2 2 2 2
-2 -2 -3 -3 -2 -1 -1 -1 -2 -3 -3 -3 -3 -3 -2 -2 -2 -1 -1 -1 -1 -0 -0 -0 -0 0 0 0 0 0 0 0 0 1 1 1 1 1 1 1 1 1 1 1 1 1 1 1 1
-3 -3 -3 -2 -3 -3 -2 -1 -2 -4 -4 -3 -3 -3 -2 -2 -2 -2 -2 -2 -1 -1 -1 -1 -1 -0 -0 -0 -0 -0 -0 -0 -0 -0 -0 0 0 0 0 0 0 0 1 1 1 1 1 1 1
Wind_Speed
6 3 3 4 5 3 4 5 3 2 2 1 1 4 5 5 4 3 1 0 2 3 5 6 9 10 11 11 12 12 12 12 12 13 13 13 13 13 13 14 14 14 15 15 15 16 16 17 17
2 2 5 5 4 3 6 5 5 4 3 2 3 2 3 1 1 1 1 2 2 4 5 6 9 11 12 12 12 12 12 12 12 12 12 12 13 13 13 14 14 14 14 15 15 15 16 16 16
1 4 4 4 4 7 6 4 6 2 1 2 2 2 1 1 0 1 2 0 3 4 5 7 10 11 12 12 12 12 11 11 11 12 12 12 12 13 13 13 14 14 14 14 14 15 15 15 15
3 4 5 3 6 7 5 3 3 3 1 1 3 1 0 2 1 1 1 3 4 4 6 7 10 11 12 12 12 12 11 11 11 12 12 12 12 13 13 13 14 14 14 13 14 14 15 15 15
4 4 3 2 6 5 3 2 4 3 2 1 3 2 1 2 3 3 3 4 5 4 6 7 10 11 12 12 12 11 11 11 11 11 12 12 12 13 13 13 13 13 13 13 13 13 14 14 14
4 4 3 6 7 4 3 2 3 2 2 1 3 2 2 2 3 3 3 4 5 5 6 7 9 10 11 11 11 11 11 11 11 11 11 12 12 12 12 12 13 13 13 13 13 13 13 14 14
4 3 5 6 4 4 3 3 3 3 2 3 3 4 1 0 1 3 4 5 6 6 6 6 7 8 9 10 11 11 10 10 11 11 11 11 12 12 12 12 12 12 12 12 13 13 13 13 14
5 4 3 4 5 5 2 3 1 4 3 1 4 5 3 2 3 5 5 5 6 6 6 6 7 7 8 9 10 10 10 10 11 11 11 11 11 11 12 11 12 12 12 12 13 13 13 13 13
4 2 6 6 6 4 2 3 1 1 4 2 1 1 0 5 7 7 5 4 4 4 5 6 6 7 8 8 9 10 10 10 11 10 11 10 10 11 10 11 11 11 11 12 12 13 13 13 13
4 5 8 4 4 3 2 3 3 3 2 1 1 2 4 7 8 8 6 5 3 2 3 5 6 6 7 7 9 10 9 10 10 10 10 10 10 10 10 11 12 11 11 11 12 12 12 12 11
5 6 4 3 3 3 2 1 2 4 3 4 5 4 5 7 7 7 6 5 4 3 3 3 5 6 7 7 7 8 8 9 9 9 9 9 9 9 9 9 10 10 10 10 10 10 10 10 10
3 3 2 2 1 2 3 3 2 3 4 2 3 6 7 8 8 8 7 5 4 3 3 3 4 5 6 7 7 7 7 6 7 7 7 8 7 7 7 7 8 8 8 8 8 8 9 10 10
4 2 1 1 1 1 2 2 2 3 3 2 4 6 7 8 7 5 4 4 4 3 3 3 4 5 5 6 6 6 6 6 6 7 7 7 6 5 6 6 7 7 7 7 7 7 8 9 9
3 2 2 1 1 1 2 2 1 5 1 2 3 4 5 6 6 5 4 4 4 4 3 3 3 4 6 6 5 6 6 6 7 7 7 7 6 6 6 6 6 6 6 7 6 6 6 7 8
1 0 2 2 2 2 2 4 5 4 2 2 2 3 4 4 4 6 6 5 5 5 4 4 3 4 5 6 6 6 6 7 6 6 7 7 7 7 7 6 5 5 6 7 7 7 7 6 7
1 1 4 3 3 2 4 9 4 2 4 4 3 3 4 4 4 4 4 4 4 4 5 5 4 4 4 5 7 6 7 7 6 6 6 7 7 7 7 6 5 6 6 7 5 5 4 4 4
1 4 6 3 2 3 5 7 4 2 4 5 4 4 4 3 3 3 3 4 4 5 5 5 5 5 4 6 7 7 7 7 6 6 6 6 7 7 7 6 6 7 6 6 5 4 3 4 4
6 5 4 5 2 3 5 7 4 1 4 5 4 3 3 4 5 3 3 4 4 5 5 5 5 5 5 5 6 6 6 5 6 6 5 6 6 7 7 6 7 7 5 4 4 4 4 3 3
4 5 5 5 2 3 6 9 8 3 3 4 4 4 4 5 4 2 2 3 4 4 5 6 5 5 5 4 4 4 3 3 3 4 5 6 6 6 7 6 6 6 4 4 4 4 5 4 3
4 5 5 3 1 3 4 8 7 5 5 5 6 5 5 3 2 1 2 3 5 5 6 6 6 6 6 4 4 3 4 3 3 4 5 6 5 6 6 6 5 5 4 5 4 4 3 2 3
6 8 7 4 2 1 2 7 6 4 3 3 3 4 3 4 4 3 3 4 4 5 6 6 6 6 5 5 5 5 4 3 3 2 2 3 5 5 5 6 6 5 5 4 3 4 4 3 2
9 5 5 5 2 3 1 6 7 4 4 4 4 3 4 4 4 4 4 4 4 5 5 6 6 6 5 6 7 7 5 4 3 2 2 3 4 5 5 5 6 5 4 4 3 4 3 4 3
4 2 3 4 4 3 2 4 7 1 4 5 5 5 4 4 4 4 4 5 4 4 5 5 5 5 5 6 7 7 5 4 3 3 4 3 3 3 4 5 5 5 4 4 4 3 3 3 3
2 1 2 1 2 6 7 6 7 4 5 4 4 4 4 3 3 2 2 2 2 3 4 4 6 5 5 6 6 6 6 6 5 4 4 3 2 2 3 3 4 4 4 3 3 3 3 2 3
1 3 1 1 2 7 4 5 8 4 3 3 4 4 4 2 2 1 1 2 3 3 4 4 5 4 4 5 5 5 6 6 6 5 4 3 2 1 2 2 2 3 3 3 3 3 2 2 2
3 5 5 5 5 4 2 7 6 2 2 1 2 1 2 1 0 1 2 3 3 4 4 5 5 4 4 4 4 4 4 4 4 4 4 4 3 2 2 2 2 3 3 3 3 2 2 2 2
2 2 2 3 1 2 5 5 6 1 3 3 2 3 3 2 1 1 0 1 2 3 4 4 5 4 4 4 4 3 3 4 4 4 3 3 2 2 3 3 3 3 3 3 3 2 2 2 2
1 3 3 3 3 4 5 4 4 3 3 3 3 3 4 3 3 2 2 1 1 2 3 3 3 4 3 4 4 4 4 3 3 4 4 3 3 2 3 3 3 3 3 3 3 2 2 2 2
1 2 2 2 2 4 4 5 3 4 2 2 2 2 3 3 2 2 2 1 1 1 2 2 2 2 2 3 3 3 3 3 3 3 3 3 2 3 3 3 3 3 3 3 3 2 2 2 1
2 3 4 3 3 3 3 5 2 2 1 1 2 3 3 3 3 3 2 2 2 1 1 1 1 2 2 3 3 3 3 4 4 4 3 3 3 3 3 3 3 3 3 3 3 3 2 3 2
Wind_Direction
339 13 67 59 61 60 229 237 212 209 213 214 120 134 149 158 161 181 343 17 78 132 153 146 138 131 128 125 121 115 110 107 105 103 102 100 99 100 98 95 91 89 88 86 86 83 82 82 81
347 37 59 66 111 198 252 233 214 215 181 108 66 81 106 187 13 61 356 320 86 123 136 133 134 133 129 125 122 118 113 110 107 105 104 102 100 100 99 97 93 90 88 87 87 86 84 84 83
21 53 90 95 155 196 224 221 211 205 132 100 95 53 136 211 314 232 291 62 85 105 119 131 133 133 130 125 120 116 114 111 109 107 105 103 100 98 97 96 95 93 90 88 88 87 86 84 83
77 54 64 111 214 220 215 220 173 143 83 85 132 110 310 22 307 290 66 96 92 89 108 132 133 132 129 124 119 116 114 113 111 109 106 103 100 98 98 96 95 95 93 91 89 88 87 85 83
57 86 103 225 234 238 234 229 155 154 176 148 143 161 259 12 34 76 90 98 103 78 95 127 132 131 129 126 120 117 114 113 112 110 108 104 100 98 97 97 96 96 95 93 91 90 90 86 84
61 82 152 223 235 245 244 197 151 154 174 139 148 159 209 46 71 89 93 88 85 81 83 106 130 129 128 127 125 119 114 110 109 109 109 107 103 99 98 98 97 95 94 92 93 94 93 89 87
121 131 200 213 228 249 229 155 157 174 198 213 172 158 217 336 87 101 90 79 71 70 73 79 101 117 123 124 124 121 115 110 107 103 102 104 102 100 98 97 96 95 95 95 95 95 93 91 88
134 131 212 218 212 238 208 155 168 169 199 161 144 166 220 218 131 103 86 76 69 58 58 70 83 96 102 108 114 116 112 107 102 98 95 97 98 99 98 95 95 94 96 98 97 96 93 90 88
107 132 222 215 201 226 181 167 129 88 115 98 154 182 332 129 128 111 94 74 71 63 46 57 73 85 93 97 102 99 99 97 94 91 89 90 90 91 92 93 93 93 96 98 98 95 92 88 85
127 200 226 210 194 189 169 175 175 139 127 203 342 36 84 128 140 142 144 149 139 113 60 52 66 83 93 94 92 88 86 86 87 88 87 85 86 91 92 92 91 90 90 92 94 93 88 82 78
169 206 217 216 204 189 188 185 166 155 207 212 200 177 146 145 153 161 165 165 158 140 96 63 69 79 90 91 90 87 88 86 84 84 87 90 85 83 84 83 80 79 78 77 83 83 79 78 77
184 241 226 247 209 196 201 184 181 187 223 245 189 153 152 162 173 177 175 165 148 128 114 79 78 83 91 97 92 91 87 84 80 80 84 90 84 78 77 79 78 77 78 75 75 79 79 76 76
212 228 180 172 112 177 138 164 183 240 284 38 95 125 157 175 182 181 165 146 138 144 131 111 85 92 101 100 95 91 89 86 84 81 80 89 90 87 81 78 79 76 78 77 75 79 82 78 73
205 196 229 262 218 214 153 263 228 256 199 110 125 157 170 179 180 174 167 168 170 171 156 133 106 106 108 107 102 99 95 93 87 81 79 85 90 91 87 78 75 74 77 79 83 85 87 83 78
138 143 296 248 217 203 120 293 241 241 136 149 176 180 178 187 178 189 191 188 182 173 156 150 130 107 109 115 110 103 101 98 87 84 85 85 88 90 87 80 73 70 80 83 83 82 81 80 75
104 171 255 259 189 189 159 251 254 185 163 206 216 206 201 209 205 208 194 184 174 164 158 158 139 120 119 123 114 107 101 98 90 91 88 85 87 90 87 80 72 76 81 81 83 84 89 80 76
173 222 235 259 196 159 179 242 258 181 177 214 226 222 220 230 232 221 200 187 176 171 161 155 144 139 133 125 114 106 101 96 93 92 87 84 88 92 88 80 74 78 77 72 83 82 89 92 81
214 214 227 227 239 155 201 241 267 250 201 223 232 235 234 237 242 224 194 180 171 169 160 151 147 141 130 118 107 101 90 84 85 87 90 94 91 94 92 82 77 78 78 75 84 91 76 84 82
178 189 227 241 212 178 221 248 262 251 240 245 244 240 242 250 264 225 182 167 161 164 159 158 150 148 139 139 141 137 131 110 89 84 88 92 92 97 94 88 84 79 84 83 92 103 89 68 60
218 230 243 271 194 203 247 264 264 238 231 232 235 239 245 261 278 235 190 171 174 176 171 164 161 156 154 152 147 133 127 115 98 85 80 85 92 98 97 96 96 89 91 81 77 93 97 75 50
231 225 229 237 330 358 314 290 261 255 238 251 238 239 247 236 237 229 207 194 181 181 180 173 171 161 154 134 117 108 96 89 95 93 87 79 95 100 97 98 100 97 100 108 94 89 95 116 64
242 240 223 217 222 260 196 272 269 255 267 258 253 255 255 255 239 221 208 199 195 194 180 169 163 160 157 142 143 141 142 142 157 149 132 97 95 102 105 103 100 103 102 111 112 84 86 114 113
239 252 209 208 201 251 232 233 276 283 265 270 261 256 257 250 232 219 209 202 193 181 170 163 153 159 157 152 156 152 144 139 129 124 121 114 91 96 102 112 111 107 102 110 110 93 88 100 115
195 86 72 89 149 246 227 209 270 235 242 269 273 267 269 260 241 231 210 167 159 152 152 154 154 159 160 157 156 155 151 141 134 135 139 144 125 95 85 100 111 114 107 117 124 115 113 109 103
112 115 63 293 233 243 204 209 252 253 248 240 264 272 276 264 224 198 173 165 164 154 154 156 155 161 162 161 163 165 161 156 159 161 163 157 151 149 152 110 117 116 115 120 115 117 127 126 121
219 176 178 207 226 264 219 226 252 260 292 284 271 286 335 340 307 203 196 183 173 165 161 159 162 163 161 164 170 168 164 165 168 167 161 168 177 173 157 148 132 118 111 118 119 121 134 125 150
166 204 190 147 149 247 253 278 301 333 357 1 357 11 352 343 351 332 258 161 168 164 165 167 167 166 167 170 165 160 167 173 171 164 155 165 160 155 152 156 141 132 127 127 125 145 155 152 176
122 146 104 159 197 244 270 263 260 291 300 333 349 342 335 354 5 1 5 68 151 163 157 147 163 172 166 166 170 172 172 172 164 156 164 168 166 155 156 160 154 145 142 144 142 147 148 164 192
91 113 120 153 186 196 254 267 246 230 233 255 290 322 339 344 342 344 355 19 65 87 133 149 156 147 152 165 167 165 172 166 160 164 175 175 166 160 167 177 175 171 169 160 161 169 162 176 197
154 174 152 179 247 215 227 268 317 234 276 235 289 325 343 355 359 358 1 24 47 70 105 151 161 166 175 172 164 166 168 170 173 177 184 173 177 176 177 181 186 195 191 178 182 189 195 200 212
Height
1496 1497 1499 1502 1506 1518 1518 1511 1507 1506 1505 1505 1505 1506 1507 1510 1513 1517 1512 1511 1514 1516 1519 1522 1524 1526 1528 1529 1531 1532 1534 1535 1536 1537 1538 1539 1539 1540 1541 1541 1542 1542 1543 1543 1544 1544 1545 1545 1546
1495 1497 1500 1501 1512 1521 1516 1508 1506 1503 1503 1503 1504 1505 1506 1508 1509 1510 1509 1511 1514 1516 1519 1521 1524 1526 1528 1529 1531 1532 1534 1535 1536 1537 1538 1539 1540 1541 1541 1542 1542 1543 1544 1544 1545 1545 1546 1547 1547
1495 1497 1499 1504 1513 1515 1508 1503 1502 1501 1502 1502 1504 1505 1506 1508 1508 1509 1510 1511 1514 1516 1519 1521 1524 1526 1528 1529 1531 1532 1534 1535 1536 1537 1538 1539 1540 1541 1542 1543 1543 1544 1545 1545 1546 1546 1547 1548 1548
1495 1497 1499 1507 1508 1505 1502 1499 1499 1501 1501 1502 1503 1505 1506 1508 1508 1509 1510 1511 1513 1516 1519 1521 1524 1525 1527 1529 1531 1532 1534 1535 1536 1537 1539 1540 1540 1541 1542 1543 1544 1545 1545 1546 1546 1547 1548 1549 1549
1494 1496 1503 1508 1505 1501 1499 1498 1499 1499 1501 1502 1503 1504 1505 1507 1507 1508 1509 1511 1513 1516 1518 1521 1523 1525 1527 1529 1531 1532 1534 1535 1536 1537 1539 1539 1541 1542 1543 1543 1544 1545 1546 1547 1547 1548 1549 1549 1550
1494 1496 1507 1507 1502 1499 1498 1497 1498 1499 1501 1502 1503 1504 1504 1506 1506 1508 1509 1511 1514 1516 1518 1520 1523 1525 1527 1528 1530 1532 1533 1535 1536 1537 1538 1540 1541 1542 1543 1544 1545 1546 1547 1547 1548 1548 1549 1550 1551
1494 1499 1503 1502 1500 1498 1496 1496 1498 1499 1500 1500 1501 1503 1503 1504 1506 1507 1509 1511 1513 1515 1517 1520 1522 1524 1526 1528 1529 1531 1533 1534 1536 1537 1538 1539 1541 1542 1543 1544 1545 1546 1547 1548 1548 1549 1550 1551 1551
1492 1497 1500 1501 1499 1496 1495 1495 1496 1497 1498 1500 1501 1502 1502 1503 1504 1506 1508 1510 1512 1514 1516 1519 1521 1523 1525 1527 1529 1530 1532 1534 1535 1537 1538 1539 1540 1542 1543 1544 1545 1546 1547 1548 1549 1549 1550 1551 1552
1491 1499 1499 1497 1497 1494 1492 1494 1495 1496 1496 1498 1498 1500 1501 1502 1503 1505 1507 1509 1511 1513 1515 1517 1520 1522 1524 1526 1528 1529 1532 1533 1535 1536 1537 1539 1540 1541 1542 1544 1545 1546 1547 1548 1549 1549 1550 1551 1552
1489 1496 1492 1491 1491 1491 1491 1492 1494 1495 1496 1496 1497 1497 1499 1500 1501 1502 1504 1506 1508 1510 1513 1515 1518 1520 1522 1524 1526 1528 1530 1532 1534 1535 1537 1538 1539 1541 1542 1543 1545 1546 1547 1548 1549 1549 1550 1551 1552
1487 1489 1488 1488 1489 1489 1490 1492 1493 1493 1495 1494 1494 1495 1496 1498 1499 1500 1502 1504 1506 1509 1511 1513 1516 1518 1520 1522 1525 1527 1529 1531 1533 1534 1536 1538 1539 1540 1542 1543 1544 1545 1546 1547 1548 1549 1550 1551 1552
1486 1486 1486 1487 1487 1488 1489 1490 1491 1492 1492 1493 1493 1494 1494 1495 1496 1498 1500 1502 1505 1507 1509 1511 1514 1516 1518 1521 1523 1525 1527 1529 1531 1533 1535 1537 1538 1539 1541 1542 1543 1544 1546 1547 1548 1549 1550 1551 1552
1485 1485 1485 1486 1486 1487 1487 1489 1490 1490 1491 1491 1491 1492 1492 1493 1495 1497 1499 1501 1503 1505 1507 1509 1511 1514 1516 1518 1520 1523 1525 1528 1530 1532 1534 1535 1537 1538 1540 1541 1542 1543 1545 1546 1547 1549 1550 1551 1552
1482 1483 1484 1485 1485 1486 1487 1488 1489 1487 1489 1489 1489 1489 1490 1491 1493 1495 1496 1498 1500 1503 1505 1508 1509 1511 1514 1516 1518 1520 1523 1525 1528 1530 1532 1534 1536 1537 1538 1540 1541 1543 1544 1545 1547 1548 1549 1550 1551
1482 1484 1484 1483 1484 1486 1487 1488 1487 1486 1487 1487 1487 1487 1488 1489 1491 1491 1493 1495 1498 1500 1503 1505 1507 1509 1511 1514 1516 1519 1521 1523 1526 1528 1530 1532 1534 1536 1537 1539 1540 1541 1543 1544 1546 1547 1548 1549 1550
1482 1485 1485 1482 1483 1484 1489 1487 1484 1484 1485 1484 1485 1485 1486 1487 1488 1489 1491 1493 1496 1498 1500 1502 1505 1507 1509 1512 1514 1517 1519 1521 1524 1526 1528 1530 1532 1534 1535 1537 1538 1540 1541 1543 1544 1546 1547 1548 1549
1484 1486 1484 1483 1482 1483 1486 1485 1482 1482 1482 1482 1483 1483 1483 1484 1485 1487 1488 1490 1492 1495 1497 1499 1502 1504 1507 1509 1512 1514 1517 1519 1521 1523 1526 1528 1530 1531 1533 1535 1537 1538 1540 1542 1543 1545 1546 1547 1548
1483 1485 1484 1483 1482 1484 1486 1484 1481 1481 1481 1480 1480 1480 1481 1481 1482 1484 1485 1487 1489 1491 1494 1497 1499 1502 1504 1506 1509 1512 1514 1517 1519 1521 1523 1525 1527 1529 1531 1533 1535 1536 1538 1540 1541 1543 1544 1546 1547
1479 1481 1483 1482 1481 1484 1484 1482 1480 1479 1479 1479 1478 1478 1478 1478 1480 1481 1482 1484 1486 1488 1490 1493 1495 1497 1500 1503 1505 1508 1511 1514 1517 1519 1521 1523 1525 1527 1529 1531 1532 1534 1536 1537 1539 1541 1542 1544 1545
1478 1481 1482 1482 1481 1483 1484 1481 1478 1477 1476 1476 1476 1476 1476 1476 1477 1478 1479 1481 1483 1484 1487 1489 1491 1494 1497 1500 1503 1505 1508 1511 1515 1517 1519 1521 1524 1525 1527 1528 1530 1532 1534 1536 1537 1538 1540 1541 1543
1477 1479 1480 1482 1483 1483 1484 1479 1475 1473 1473 1473 1473 1473 1473 1473 1474 1475 1476 1477 1479 1481 1483 1485 1489 1491 1494 1497 1500 1503 1506 1509 1512 1514 1517 1519 1521 1523 1525 1526 1528 1530 1532 1533 1534 1536 1537 1538 1541
1475 1476 1478 1480 1485 1488 1486 1485 1474 1472 1472 1470 1470 1470 1470 1470 1471 1472 1473 1474 1476 1479 1482 1484 1486 1489 1493 1495 1498 1500 1502 1505 1508 1512 1515 1517 1519 1521 1523 1524 1526 1528 1530 1531 1532 1534 1535 1537 1538
1476 1476 1478 1480 1485 1489 1489 1489 1475 1473 1471 1469 1468 1467 1467 1468 1468 1469 1470 1472 1474 1477 1479 1481 1484 1487 1490 1493 1495 1498 1501 1504 1507 1510 1512 1515 1517 1519 1521 1523 1524 1526 1528 1529 1531 1532 1533 1535 1536
1476 1478 1480 1483 1486 1488 1485 1488 1475 1474 1469 1466 1465 1465 1465 1465 1465 1466 1468 1470 1472 1474 1476 1479 1482 1484 1487 1490 1493 1495 1498 1501 1504 1506 1509 1512 1514 1516 1518 1520 1522 1523 1525 1527 1528 1529 1531 1532 1534
1476 1480 1484 1485 1489 1484 1483 1483 1474 1468 1466 1465 1464 1463 1463 1463 1464 1464 1465 1467 1469 1471 1473 1476 1479 1481 1484 1487 1490 1493 1496 1499 1501 1503 1506 1509 1511 1512 1515 1517 1519 1521 1523 1524 1526 1526 1528 1529 1531
1478 1478 1482 1485 1486 1484 1485 1481 1470 1466 1464 1463 1463 1462 1462 1462 1462 1463 1464 1465 1466 1469 1471 1473 1476 1479 1482 1484 1487 1490 1493 1495 1498 1500 1503 1505 1507 1509 1512 1515 1516 1518 1519 1521 1522 1524 1525 1527 1528
1479 1481 1481 1486 1491 1491 1484 1480 1470 1465 1464 1463 1463 1462 1461 1461 1461 1462 1462 1463 1465 1467 1469 1471 1474 1476 1479 1481 1484 1486 1489 1492 1494 1497 1500 1502 1504 1506 1509 1511 1513 1514 1516 1518 1519 1521 1522 1523 1525
1480 1482 1486 1485 1484 1482 1480 1480 1472 1466 1465 1464 1463 1462 1462 1461 1461 1461 1462 1462 1463 1465 1467 1470 1472 1474 1476 1479 1481 1483 1486 1488 1490 1493 1496 1498 1501 1503 1504 1506 1508 1510 1512 1514 1516 1517 1518 1519 1521
1483 1486 1486 1489 1487 1484 1483 1475 1467 1466 1464 1464 1463 1463 1462 1462 1461 1461 1461 1462 1463 1464 1466 1468 1470 1471 1473 1476 1478 1480 1482 1484 1487 1489 1492 1494 1496 1498 1500 1502 1504 1506 1508 1509 1511 1512 1513 1515 1516
1483 1485 1487 1488 1489 1491 1485 1477 1466 1465 1464 1464 1464 1463 1463 1463 1462 1462 1462 1462 1462 1463 1464 1466 1467 1469 1471 1473 1475 1477 1479 1481 1483 1485 1487 1490 1492 1494 1496 1498 1500 1502 1503 1504 1506 1507 1509 1510 1511